Wind_Speed
35 37 39 36 38 38 36 31 35 33 31 43 42 40 38 42 49 40 40 40 38 38 37 39 36 33 31 31 33 33 33 32 33 34 35 35 33 31 31 32 33 34 33 33
38 38 37 38 39 41 41 43 40 39 44 49 41 38 38 42 46 39 38 39 39 40 39 41 36 35 34 34 34 35 35 34 34 36 37 37 35 34 33 34 36 38 37 38
39 35 41 41 43 40 39 40 41 41 40 47 41 42 42 42 43 41 40 40 40 41 40 42 39 39 39 36 37 38 37 37 36 37 39 39 38 38 37 37 40 40 41 42
37 36 44 42 41 41 42 42 42 41 43 45 40 42 40 40 42 42 40 41 41 42 43 44 44 42 40 39 41 41 41 41 40 41 41 41 41 41 42 43 43 42 43 44
33 36 42 40 40 42 41 41 45 45 47 44 40 42 39 25 42 45 42 39 40 43 44 44 45 45 43 44 44 44 44 43 43 45 45 45 44 43 44 45 46 46 46 46
34 36 41 38 37 42 45 44 46 46 42 43 44 42 38 29 32 43 44 43 45 46 47 47 47 48 47 47 46 45 44 44 45 46 48 48 47 47 47 47 47 47 48 49
37 34 39 36 39 43 40 42 43 44 44 50 42 35 47 29 38 36 50 48 47 48 48 48 48 48 51 45 47 47 46 45 46 47 49 49 48 48 48 48 49 49 50 50
33 35 38 41 39 37 40 38 36 39 31 34 32 35 40 28 39 49 53 49 44 45 47 49 48 47 48 47 46 47 46 43 48 47 49 50 50 50 49 50 50 49 50 51
37 38 23 28 36 39 35 32 35 30 29 30 24 33 38 46 48 50 48 49 49 49 49 49 48 48 47 50 47 48 47 47 48 48 49 49 50 50 50 51 51 50 51 51
40 44 40 33 44 45 39 31 33 35 38 37 33 30 26 27 37 45 46 47 46 47 50 49 49 48 48 50 49 49 49 49 49 49 50 51 53 52 52 53 53 53 54 54
47 49 47 40 43 44 38 46 41 34 33 33 33 35 29 29 36 42 45 42 44 43 45 46 46 45 45 46 47 47 47 47 47 48 50 51 52 53 53 54 55 55 55 55
51 54 53 52 48 39 42 39 37 44 48 37 35 31 30 38 39 39 31 34 39 42 40 42 44 45 45 45 46 46 45 45 45 46 47 48 51 53 54 56 58 58 58 58
58 57 56 56 50 43 48 48 48 42 38 42 45 44 38 28 35 38 41 39 40 36 35 36 38 40 42 43 45 46 44 43 44 44 45 47 50 52 53 56 57 59 60 60
62 59 61 60 52 43 47 48 43 46 52 42 43 41 37 29 38 43 43 45 42 42 39 36 36 35 35 37 38 36 36 36 38 40 41 44 46 48 51 55 57 58 58 58
69 68 66 66 66 63 55 50 57 55 54 54 56 46 42 36 27 29 37 24 36 46 44 39 36 37 37 37 37 38 41 43 45 44 44 47 48 51 54 56 58 59 59 60
71 72 71 72 70 71 72 70 63 63 54 58 51 54 54 47 47 50 48 51 54 48 38 35 40 40 39 37 39 40 41 42 44 43 45 46 47 50 52 54 56 58 59 59
67 68 69 73 70 70 66 75 72 70 72 72 70 62 55 55 55 56 58 60 60 51 51 47 45 47 42 40 41 43 43 43 43 44 46 47 49 51 53 55 57 57 56 56
65 66 66 70 70 64 73 71 72 73 76 76 75 69 63 60 58 61 63 63 61 59 53 50 48 48 47 46 48 46 47 46 46 47 49 50 51 53 56 58 58 55 53 50
57 60 62 62 70 70 73 70 69 69 75 76 77 69 68 64 65 65 67 62 62 59 57 52 52 51 51 51 51 50 49 48 47 49 50 52 55 57 59 59 58 53 51 47
28 27 43 51 58 61 68 67 66 68 75 71 71 72 69 68 72 68 67 68 65 59 55 53 50 50 51 51 52 50 49 48 49 51 52 55 56 58 59 58 53 52 50 48
27 33 35 34 38 39 51 58 45 56 70 68 62 70 69 69 71 68 71 68 64 61 58 56 54 53 53 51 50 50 51 52 53 53 54 56 58 60 58 52 53 50 49 50
26 29 33 39 40 36 30 40 40 49 58 69 64 69 71 71 74 70 73 68 64 62 60 61 59 58 57 54 53 55 55 55 55 55 56 58 61 60 57 52 50 50 51 52
27 26 30 39 46 47 36 36 39 36 28 36 55 52 63 71 67 66 68 67 64 62 61 62 60 60 55 56 55 54 54 55 56 57 58 59 58 56 54 52 50 51 53 47
20 22 28 30 36 42 47 44 41 48 38 32 33 43 48 63 67 68 67 63 61 58 59 57 56 55 54 54 54 54 53 53 54 57 58 52 53 52 50 48 51 55 47 48
25 28 27 30 28 35 41 48 47 37 52 43 38 37 44 50 58 64 61 61 58 57 57 54 54 52 51 50 50 50 48 50 53 55 53 50 48 46 46 48 49 45 43 37
13 23 24 27 25 24 29 30 43 43 40 45 46 42 46 48 50 52 52 53 51 47 45 42 47 47 47 46 44 44 49 52 49 46 45 44 44 40 31 35 38 41 35 33
Wind_Direction
237 236 238 238 237 236 232 237 234 231 226 246 234 238 237 239 250 250 247 247 244 242 238 237 240 246 253 259 263 266 269 267 266 266 266 264 266 269 272 272 270 270 270 278
240 237 238 238 239 236 234 237 236 237 239 242 243 239 239 239 249 248 245 244 241 236 234 239 244 251 257 263 268 271 273 272 267 267 267 267 269 270 271 272 272 270 270 273
238 240 237 237 238 241 242 242 242 239 241 245 243 240 241 240 244 247 244 243 238 233 233 241 245 252 257 267 272 273 274 272 270 267 267 269 270 270 272 272 273 272 273 273
244 237 245 241 242 241 241 242 241 241 241 248 246 244 245 245 247 244 244 241 236 233 235 243 249 254 263 267 269 273 274 274 274 274 272 272 272 272 272 272 272 273 272 274
249 246 246 242 243 244 244 243 244 240 243 244 242 247 243 243 247 244 243 242 241 240 243 249 256 260 263 266 269 269 271 273 274 275 275 275 276 276 275 274 273 273 275 276
245 249 248 246 246 242 241 243 246 247 246 245 243 245 246 242 260 258 246 242 240 243 247 251 255 259 260 265 266 267 269 270 271 272 273 275 277 278 277 276 277 277 278 278
252 246 258 245 247 245 242 241 244 245 242 248 248 243 244 235 234 231 251 250 250 249 252 254 257 259 263 261 263 266 267 269 271 272 274 275 276 276 277 279 280 280 282 282
250 249 253 254 247 251 253 245 246 249 242 251 250 237 246 233 245 245 252 254 255 253 254 255 256 258 260 261 261 263 265 267 268 270 273 275 276 277 279 279 281 283 284 284
242 245 226 243 254 238 236 248 242 237 237 234 231 240 246 243 245 253 255 255 256 254 254 255 256 258 259 261 261 264 266 265 267 270 272 273 275 277 278 279 281 281 282 284
254 248 234 239 250 249 243 230 242 235 234 234 234 227 250 272 261 247 250 255 255 254 255 256 257 257 258 260 262 263 265 265 266 267 269 270 273 276 278 279 280 282 283 285
258 253 245 228 245 250 246 242 232 236 243 239 240 242 249 250 257 257 256 251 255 256 256 256 257 258 259 260 262 263 264 265 265 267 269 271 273 276 278 280 281 282 283 284
247 251 250 248 241 248 249 233 250 245 241 235 233 228 236 232 236 239 244 249 253 255 256 255 256 257 258 259 260 261 264 266 267 268 270 272 274 276 278 280 282 284 287 288
251 252 250 248 245 231 242 246 235 231 244 243 235 239 219 232 252 254 255 251 255 251 253 253 253 254 255 258 260 263 267 269 272 274 275 275 277 279 281 282 283 284 285 286
248 245 246 245 249 251 245 249 246 238 234 231 237 243 235 238 241 251 263 267 255 256 252 246 244 244 247 252 257 263 268 272 274 277 278 278 279 281 282 282 283 283 284 285
245 244 242 242 241 235 222 231 235 232 230 237 243 238 239 229 249 249 239 224 252 248 250 249 250 252 252 252 256 262 266 268 272 275 279 281 284 286 285 285 285 285 286 284
247 243 245 241 240 239 236 229 229 234 237 240 241 240 240 223 221 234 239 241 248 255 258 258 257 252 255 262 266 265 269 273 275 278 280 284 286 286 287 287 287 287 286 285
253 251 249 247 243 244 241 237 240 243 237 238 245 244 240 237 235 234 236 243 251 255 253 253 256 260 258 258 262 268 271 274 277 280 283 285 287 289 290 290 289 288 287 285
251 252 250 248 247 244 245 242 243 240 239 239 241 243 240 239 241 243 241 243 249 255 255 253 254 258 261 262 263 267 270 274 278 281 281 284 288 289 288 288 292 293 291 286
253 252 252 253 249 253 247 241 247 249 244 241 244 244 245 244 245 244 250 249 250 251 253 254 254 255 260 263 266 266 270 275 278 279 282 285 287 288 288 290 293 294 292 283
249 253 256 252 253 254 250 244 249 249 249 243 246 243 244 247 244 244 250 251 252 251 253 256 256 255 256 258 261 267 271 275 277 279 282 283 284 287 290 294 295 291 286 282
247 244 239 245 258 255 252 245 247 249 251 246 246 241 241 241 244 244 246 248 251 253 255 256 257 258 259 260 264 267 271 275 277 278 279 281 283 286 292 295 290 289 285 285
263 258 246 231 242 247 233 236 234 246 245 247 247 246 240 240 240 241 244 246 249 253 254 256 257 258 261 264 266 266 268 270 271 273 276 278 283 289 293 288 289 286 286 287
268 271 260 241 235 232 225 226 233 243 254 247 243 240 243 243 242 242 245 247 250 251 253 256 258 258 260 260 262 262 265 267 270 273 277 280 287 288 287 286 286 285 288 288
291 290 286 265 249 238 233 230 223 227 235 238 226 224 235 244 244 244 243 244 247 250 252 254 255 257 258 259 260 261 264 267 270 272 276 283 287 286 282 283 283 287 285 287
283 281 279 281 259 240 235 230 232 248 230 233 218 223 230 234 238 243 245 246 246 248 252 254 253 252 254 256 258 261 264 266 268 271 278 280 279 282 282 287 288 284 289 290
273 283 280 291 256 229 237 232 220 232 237 238 230 220 231 239 239 238 237 238 239 240 244 241 249 250 249 253 258 259 258 260 268 271 272 274 278 289 284 282 290 295 291 289
Height
5800 5803 5807 5809 5812 5818 5820 5824 5827 5832 5836 5831 5836 5840 5845 5847 5843 5850 5852 5855 5857 5859 5861 5862 5866 5870 5871 5873 5874 5877 5878 5877 5878 5878 5878 5878 5878 5878 5878 5878 5877 5877 5877 5877
5793 5796 5799 5802 5804 5807 5811 5814 5818 5822 5825 5822 5827 5832 5836 5839 5837 5842 5846 5849 5851 5853 5855 5855 5861 5861 5863 5864 5868 5869 5869 5871 5871 5871 5870 5871 5871 5871 5871 5871 5871 5870 5871 5870
5785 5789 5790 5793 5795 5800 5804 5805 5810 5814 5816 5814 5820 5822 5825 5829 5831 5835 5837 5840 5843 5846 5849 5849 5852 5854 5856 5858 5859 5860 5861 5862 5863 5863 5863 5863 5863 5863 5863 5863 5863 5863 5863 5861
5777 5782 5780 5785 5789 5792 5795 5798 5801 5804 5806 5807 5810 5813 5817 5822 5822 5824 5828 5832 5836 5839 5841 5842 5843 5847 5848 5850 5850 5851 5852 5853 5853 5852 5854 5855 5855 5855 5854 5854 5853 5853 5855 5853
5771 5772 5771 5777 5781 5782 5788 5789 5790 5794 5795 5798 5802 5805 5812 5814 5812 5816 5819 5823 5827 5830 5832 5834 5835 5837 5839 5839 5841 5842 5843 5844 5843 5843 5843 5844 5845 5845 5845 5845 5844 5843 5843 5844
5760 5761 5762 5768 5771 5773 5776 5780 5781 5784 5787 5785 5797 5798 5803 5807 5807 5806 5811 5814 5817 5820 5823 5825 5827 5827 5830 5830 5831 5833 5835 5834 5834 5834 5833 5834 5835 5835 5834 5834 5834 5833 5832 5832
5751 5754 5753 5758 5759 5761 5767 5769 5772 5774 5775 5778 5790 5788 5793 5799 5798 5799 5797 5802 5806 5810 5813 5815 5817 5818 5817 5822 5821 5822 5824 5824 5823 5824 5824 5823 5824 5824 5823 5823 5823 5822 5822 5821
5742 5745 5746 5747 5751 5754 5754 5760 5762 5764 5769 5774 5779 5777 5784 5789 5785 5788 5788 5792 5795 5798 5800 5803 5805 5807 5808 5810 5812 5812 5814 5816 5813 5814 5814 5814 5813 5812 5812 5812 5812 5811 5810 5810
5731 5734 5743 5742 5738 5743 5748 5747 5755 5757 5762 5766 5771 5771 5769 5771 5774 5776 5779 5780 5782 5785 5789 5791 5794 5796 5797 5797 5801 5801 5803 5804 5804 5804 5804 5804 5803 5802 5801 5801 5801 5801 5799 5798
5723 5721 5728 5734 5729 5732 5736 5744 5745 5743 5746 5751 5759 5764 5766 5763 5759 5765 5766 5767 5768 5773 5776 5779 5782 5784 5786 5786 5789 5790 5792 5793 5793 5793 5793 5792 5792 5791 5791 5791 5790 5789 5787 5786
5708 5709 5717 5720 5717 5723 5725 5726 5730 5735 5738 5741 5748 5754 5761 5759 5754 5753 5754 5756 5756 5761 5764 5768 5770 5772 5773 5775 5777 5778 5780 5781 5781 5782 5782 5782 5781 5780 5780 5779 5777 5776 5776 5774
5690 5693 5697 5703 5710 5715 5713 5717 5721 5720 5725 5730 5737 5745 5744 5747 5745 5743 5744 5743 5747 5750 5754 5756 5759 5760 5762 5764 5766 5768 5768 5769 5770 5771 5771 5771 5770 5769 5768 5767 5765 5764 5762 5761
5671 5678 5682 5686 5693 5699 5697 5701 5705 5710 5711 5714 5723 5728 5740 5737 5736 5734 5736 5735 5738 5743 5744 5746 5748 5749 5751 5753 5755 5757 5759 5759 5759 5760 5760 5760 5760 5758 5757 5755 5754 5752 5750 5749
5652 5659 5662 5667 5679 5689 5690 5688 5692 5696 5698 5704 5706 5719 5726 5733 5728 5726 5726 5727 5730 5732 5734 5736 5739 5741 5743 5745 5747 5748 5749 5750 5750 5750 5749 5748 5748 5747 5745 5743 5741 5739 5737 5735
5633 5637 5640 5645 5652 5657 5662 5667 5671 5674 5681 5687 5697 5704 5714 5721 5723 5715 5708 5715 5717 5719 5721 5725 5728 5730 5733 5737 5740 5741 5741 5741 5741 5740 5739 5737 5736 5735 5733 5731 5728 5725 5723 5721
5611 5619 5617 5621 5629 5634 5638 5645 5649 5660 5670 5671 5677 5681 5696 5700 5701 5700 5702 5704 5705 5709 5713 5716 5717 5719 5722 5725 5727 5729 5730 5730 5729 5730 5728 5726 5725 5723 5721 5718 5715 5711 5708 5705
5589 5593 5597 5600 5613 5611 5609 5624 5638 5646 5648 5652 5657 5671 5679 5681 5684 5689 5691 5690 5692 5698 5700 5704 5707 5708 5712 5716 5717 5717 5718 5718 5719 5718 5717 5715 5713 5711 5708 5704 5701 5697 5694 5691
5569 5572 5578 5581 5587 5578 5597 5615 5615 5616 5622 5631 5635 5649 5660 5665 5668 5667 5666 5673 5678 5681 5688 5693 5696 5698 5701 5704 5705 5707 5707 5708 5708 5707 5705 5703 5701 5698 5694 5690 5686 5683 5679 5676
5550 5554 5557 5559 5565 5566 5575 5595 5601 5599 5602 5612 5617 5635 5639 5646 5648 5651 5649 5659 5661 5668 5673 5681 5685 5688 5691 5692 5693 5695 5696 5697 5697 5694 5693 5691 5688 5684 5681 5677 5673 5669 5665 5662
5540 5542 5542 5547 5544 5545 5564 5581 5576 5577 5571 5599 5603 5611 5621 5626 5625 5635 5637 5635 5643 5655 5663 5668 5673 5676 5678 5680 5681 5684 5684 5685 5684 5683 5681 5678 5675 5671 5667 5664 5661 5656 5652 5648
5530 5530 5530 5533 5532 5534 5546 5558 5556 5554 5571 5581 5573 5592 5601 5604 5607 5619 5616 5624 5633 5642 5650 5654 5658 5662 5664 5667 5671 5672 5672 5672 5671 5670 5668 5666 5662 5659 5656 5653 5648 5643 5639 5636
5519 5518 5518 5521 5521 5523 5534 5535 5537 5546 5543 5554 5557 5571 5577 5584 5589 5603 5598 5612 5621 5629 5635 5638 5643 5647 5649 5656 5658 5658 5660 5660 5660 5658 5656 5653 5649 5647 5644 5640 5635 5630 5627 5625
5510 5509 5508 5509 5507 5512 5516 5520 5523 5528 5535 5534 5542 5550 5555 5567 5580 5586 5588 5601 5609 5616 5621 5624 5629 5632 5638 5642 5642 5644 5646 5647 5647 5646 5643 5640 5638 5635 5631 5628 5623 5620 5616 5612
5502 5500 5496 5497 5499 5503 5506 5510 5513 5513 5519 5521 5528 5535 5540 5549 5560 5567 5577 5587 5595 5602 5605 5612 5615 5619 5624 5627 5628 5630 5633 5634 5634 5633 5631 5629 5628 5624 5620 5617 5613 5609 5605 5601
5494 5491 5489 5484 5486 5487 5490 5494 5499 5505 5504 5511 5519 5524 5530 5533 5540 5548 5563 5571 5580 5588 5593 5597 5601 5606 5611 5613 5616 5619 5622 5622 5622 5621 5621 5619 5617 5615 5612 5610 5604 5598 5593 5590
5484 5481 5478 5477 5477 5480 5482 5485 5489 5492 5498 5502 5507 5513 5516 5520 5525 5534 5546 5556 5566 5575 5582 5584 5590 5596 5599 5602 5606 5608 5609 5610 5611 5611 5611 5610 5608 5607 5604 5602 5595 5587 5585 5581